Find Starlink 35108

NORAD ID: 65738 Int'l Des: 2025-216 Owner: SPXS Country: US Constellation: starlink operational
LEOCIRCULAR

Live Position

Loading 3D Globe...

About Starlink 35108

Description loading...

Upcoming Passes

Passes for default location (London). Set your location on the main map for personalized predictions.

Altitude History

Loading altitude history...

Two-Line Element Set

1 65738U 25216E 26106.84270514 .00006415 00000-0 22850-3 0 9997
2 65738 53.1580 155.7702 0001101 79.9162 280.1963 15.30201851 32434
Epoch: Apr 16, 2026 • Age: 8 hours

Current Status

Altitude 475.7 km
Velocity 7.63 km/s
Sub-Earth Point 2.36°N, 110.43°W
Launch Date Sep 25, 2025
Age 0.5 years
Type internet

Technical Details

Classification Payload
Mass 575.00 kg
Dry Mass 530.00 kg
Total Mass 575.00 kg
Length 0.30 m
Diameter 4.10 m
Span 29.00 m
Shape Box + pan
Manufacturer SPXS
Bus Type Starlink V2MO
Phase Status In Orbit
Owner/State SPXS/US

Most Searched